Location: *
(43.0833°N, 13.0500°E)
Time: 00:22:27
(UTC+00:00)

Cosmos 2034 Rocket - Pass Details

Date: 15 November 2019
Orbit: 959 x 1000 km, 82.9° (Epoch: 12 December)

Event Time Altitude Azimuth Distance (km) Brightness Sun altitude
Rises 16:52:40 0° 357° (N) 3,716 6.9 -12.6°
Reaches altitude 10° 16:55:21 10° 4° (N) 2,768 6.2 -13.1°
Maximum altitude 17:01:23 44° 76° (ENE) 1,353 4.3 -14.1°
Drops below altitude 10° 17:07:25 10° 147° (SSE) 2,763 6.2 -15.2°
Sets 17:10:04 0° 154° (SSE) 3,708 6.9 -15.7°
